GW1109 Weather Reports


Display with metric or nautical units.
time (UTC)temp
F
wind
direction
speed
MPH
gust
MPH
rain 1hr
in
rain 24hr
in
rain mn
in
humidity
%
barometer
mb
20260904140106 78 302 2.0 7.0 0.00 0.01 0.00 100 1010.1
20260904134550 77 0 0.0 5.0 0.00 0.01 0.00 100 1010.0
20260904133104 76 296 2.0 6.0 0.00 0.01 0.00 100 1010.1
20260904131548 76 346 2.0 4.0 0.00 0.01 0.00 100 1010.0
20260904130104 75 304 2.0 5.0 0.00 0.01 0.00 100 1010.0
20260904124552 74 360 1.0 4.0 0.00 0.03 0.00 100 1010.1
20260904123047 73 308 3.0 5.0 0.00 0.03 0.00 100 1010.2
20260904121600 74 301 2.0 7.0 0.00 0.03 0.00 100 1010.3
20260904120107 73 310 3.0 5.0 0.00 0.03 0.00 100 1010.2
20260904114549 73 320 1.0 5.0 0.00 0.08 0.00 100 1010.0
20260904113048 73 360 2.0 4.0 0.00 0.08 0.00 100 1009.9
20260904111549 72 317 1.0 3.0 0.00 0.08 0.00 100 1009.9
20260904110058 72 322 1.0 4.0 0.00 0.08 0.00 100 1009.9
20260904104606 71 320 1.0 2.0 0.00 0.09 0.00 100 1009.8
20260904103047 71 269 0.0 2.0 0.00 0.09 0.00 100 1009.6
20260904101547 70 0 0.0 2.0 0.00 0.09 0.00 100 1009.6
20260904100057 71 269 0.0 2.0 0.00 0.09 0.00 100 1009.6
20260904094552 71 269 0.0 3.0 0.00 0.11 0.00 100 1009.7
20260904093049 71 294 1.0 2.0 0.00 0.11 0.00 100 1009.7
20260904091555 71 255 0.0 3.0 0.00 0.11 0.00 100 1009.6
20260904090053 71 308 0.0 2.0 0.00 0.11 0.00 100 1009.8
20260904084547 71 296 2.0 6.0 0.00 0.23 0.00 100 1009.9
20260904083057 71 217 2.0 6.0 0.00 0.23 0.00 100 1009.8
20260904081555 71 0 1.0 7.0 0.00 0.23 0.00 100 1009.5
20260904080047 71 224 1.0 5.0 0.00 0.23 0.00 100 1009.7
20260904074558 71 271 1.0 4.0 0.00 0.23 0.00 100 1009.8
20260904073055 70 216 1.0 4.0 0.00 0.23 0.00 100 1009.8
20260904071548 70 0 1.0 5.0 0.00 0.23 0.00 100 1010.1
20260904070101 70 0 1.0 4.0 0.00 0.23 0.00 100 1010.1
20260904064556 70 275 1.0 6.0 0.00 0.23 0.00 100 1010.2
20260904063052 70 207 1.0 4.0 0.00 0.23 0.00 100 1010.3
20260904061552 70 285 1.0 8.0 0.00 0.23 0.00 100 1010.6
20260904060057 70 251 2.0 7.0 0.00 0.23 0.00 100 1010.9
20260904054603 70 255 1.0 3.0 0.00 0.23 0.00 100 1011.0
20260904053103 70 209 2.0 5.0 0.00 0.23 0.00 100 1011.0
20260904051554 70 217 1.0 4.0 0.00 0.23 0.00 100 1011.2
20260904050055 70 0 1.0 4.0 0.00 0.23 0.00 100 1011.3
20260904044557 70 169 0.0 4.0 0.00 0.23 0.00 100 1011.4
20260904043102 69 0 0.0 0.0 0.00 0.23 0.00 100 1011.5
20260904041554 69 0 0.0 3.0 0.00 0.23 0.00 100 1011.6
20260904040053 69 0 0.0 0.0 0.00 0.23 0.00 100 1011.8
20260904034547 69 0 0.0 0.0 0.00 0.23 0.23 100 1012.0
20260904033056 69 0 0.0 0.0 0.00 0.23 0.23 100 1012.1
20260904031554 69 0 0.0 0.0 0.00 0.23 0.23 100 1012.1
20260904030108 69 0 0.0 0.0 0.00 0.23 0.23 100 1012.1
20260904024601 69 0 0.0 0.0 0.00 0.23 0.23 100 1012.0
20260904023054 69 0 0.0 0.0 0.00 0.23 0.23 100 1012.2
20260904021549 69 0 0.0 0.0 0.00 0.23 0.23 100 1012.4
20260904020058 69 0 0.0 0.0 0.00 0.23 0.23 100 1012.5
20260904014613 69 0 0.0 0.0 0.00 0.23 0.23 100 1012.6
20260904013049 69 0 0.0 0.0 0.00 0.23 0.23 100 1012.7
20260904011602 69 0 0.0 0.0 0.00 0.23 0.23 100 1012.7
20260904010058 69 0 0.0 0.0 0.00 0.23 0.23 100 1012.7
20260904004554 69 0 0.0 0.0 0.00 0.23 0.23 100 1012.6
20260904003104 69 0 0.0 2.0 0.00 0.23 0.23 100 1012.4
20260904001559 69 0 0.0 2.0 0.00 0.23 0.23 100 1012.4
20260904000059 69 0 0.0 1.0 0.00 0.23 0.23 100 1012.1
20260903234552 69 107 0.0 2.0 0.00 0.23 0.23 100 1012.0
20260903233051 69 0 0.0 3.0 0.00 0.23 0.23 100 1012.0
20260903231606 69 0 0.0 0.0 0.00 0.23 0.23 100 1012.1
20260903224555 69 0 0.0 0.0 0.00 0.23 0.23 100 1012.2
20260903223051 69 0 0.0 0.0 0.00 0.23 0.23 100 1012.4
20260903221548 69 0 0.0 0.0 0.00 0.23 0.23 100 1012.4
20260903220120 69 0 0.0 0.0 0.00 0.23 0.23 100 1012.4
20260903214556 69 0 0.0 0.0 0.00 0.23 0.23 100 1012.5
20260903213051 69 0 0.0 0.0 0.00 0.23 0.23 100 1012.8
20260903211604 69 0 0.0 0.0 0.00 0.23 0.23 100 1012.5
20260903210112 69 0 0.0 0.0 0.00 0.23 0.23 100 1012.5
20260903204555 69 0 0.0 0.0 0.00 0.23 0.23 100 1012.6
20260903203052 69 0 0.0 0.0 0.00 0.23 0.23 100 1012.9
20260903201552 69 0 0.0 0.0 0.00 0.23 0.23 100 1012.8
20260903200100 68 0 0.0 0.0 0.00 0.23 0.23 100 1012.9
20260903194555 69 0 0.0 0.0 0.00 0.23 0.23 100 1013.0
20260903193049 69 0 0.0 2.0 0.00 0.23 0.23 100 1013.0
20260903191601 69 0 0.0 3.0 0.00 0.23 0.23 100 1013.0
20260903190058 69 0 0.0 2.0 0.00 0.23 0.23 100 1013.3
20260903184556 69 0 0.0 2.0 0.00 0.23 0.23 100 1013.4
20260903183051 69 0 0.0 1.0 0.00 0.23 0.23 100 1013.5
20260903181559 68 0 0.0 2.0 0.00 0.23 0.23 100 1013.7
20260903180100 69 117 0.0 3.0 0.00 0.23 0.23 100 1013.9
20260903174554 69 0 0.0 1.0 0.00 0.23 0.23 100 1014.1
20260903173049 69 0 1.0 4.0 0.00 0.23 0.23 100 1013.7
20260903171609 69 0 0.0 3.0 0.00 0.23 0.23 100 1013.7
20260903170100 69 138 0.0 4.0 0.00 0.23 0.23 100 1013.7
20260903164604 69 111 1.0 3.0 0.00 0.23 0.23 100 1014.1
20260903163049 69 111 1.0 3.0 0.00 0.23 0.23 100 1014.0
20260903161601 69 77 1.0 4.0 0.00 0.23 0.23 100 1014.3
20260903160059 69 85 1.0 4.0 0.01 0.23 0.23 100 1014.4
20260903154552 69 55 0.0 3.0 0.01 0.23 0.23 100 1014.7
20260903153049 68 119 1.0 3.0 0.01 0.23 0.23 100 1014.9
20260903151549 69 0 1.0 4.0 0.01 0.23 0.23 100 1014.9
20260903150101 69 160 0.0 4.0 0.00 0.22 0.22 100 1015.1
20260903144552 69 205 0.0 4.0 0.00 0.22 0.22 100 1015.3
20260903143111 69 187 0.0 3.0 0.00 0.22 0.22 100 1015.3
20260903141600 68 148 1.0 4.0 0.00 0.22 0.22 100 1015.5